Quillayute, WA

2:14 AM PDT on May 25, 2017 (GMT -0700)
Quillayute

Weather History for KUIL - February, 2014

Change the Weather History Date:

Tuesday, February 18, 2014

  Actual Average Record
Temperature  
Mean Temperature 47 °F 42 °F  
Max Temperature 51 °F 49 °F 60 °F (2008)
Min Temperature 42 °F 35 °F 20 °F (1986)
Degree Days  
Heating Degree Days 18 23  
Month to date heating degree days 425 414  
Since 1 July heating degree days 2983 3619  
Cooling Degree Days 0 0  
Month to date cooling degree days 0 0  
Year to date cooling degree days 0 0  
Moisture  
Dew Point 42 °F    
Average Humidity 82    
Maximum Humidity 93    
Minimum Humidity 70    
Precipitation  
Precipitation 0.76 in 0.36 in 3.96 in (1968)
Month to date precipitation 6.93 6.76  
Year to date precipitation 18.86 21.37  
Sea Level Pressure  
Sea Level Pressure 29.70 in    
Wind  
Wind Speed 13 mph (SSW)    
Max Wind Speed 32 mph    
Max Gust Speed 42 mph    
Visibility 4 miles    
Events Rain    
T = Trace of Precipitation, MM = Missing Value Source: NWS Daily Summary

Daily Weather History Graph

Daily Weather History Graph

Search for Another Location

Airport or City:

Trip Planner

Search our weather history database for the weather conditions in past years. The results will help you decide how hot, cold, wet, or windy it might be!

Date:

Astronomy

Feb. 18, 2014 Rise Set
Actual Time 7:19 AM PST 5:45 PM PST
Civil Twilight 6:47 AM PST 6:17 PM PST
Nautical Twilight 6:11 AM PST 6:53 PM PST
Astronomical Twilight 5:35 AM PST 7:29 PM PST
Moon 10:06 PM PST (2/18) 8:35 AM PST (2/18)
Length of Visible Light 11h 30m
Length of Day
10h 26m
Waning Gibbous, 86% of the Moon is Illuminated
Feb 18
Waning Gibbous
Feb 22
Last Quarter
Mar 1
New
Mar 8
First Quarter
Mar 16
Full

Hourly Weather History & Observations

Time (PST) Temp. Windchill Dew Point Humidity Pressure Visibility Wind Dir Wind Speed Gust Speed Precip Events Conditions
12:12 AM 46.0 °F 42.5 °F 43.0 °F 89% 29.88 in 6.0 mi South 6.9 mph - N/A   Overcast
12:53 AM 46.0 °F 44.8 °F 42.1 °F 86% 29.88 in 5.0 mi Variable 3.5 mph - N/A   Overcast
1:10 AM 46.0 °F 41.9 °F 42.1 °F 86% 29.87 in 4.0 mi South 8.1 mph - N/A   Overcast
1:41 AM 46.0 °F 43.1 °F 42.1 °F 86% 29.86 in 5.0 mi SE 5.8 mph - N/A   Overcast
1:53 AM 46.0 °F 43.9 °F 42.1 °F 86% 29.86 in 5.0 mi Variable 4.6 mph - N/A   Overcast
2:41 AM 46.0 °F 41.9 °F 42.1 °F 86% 29.85 in 6.0 mi SSE 8.1 mph - N/A   Overcast
2:53 AM 46.0 °F 41.4 °F 42.1 °F 86% 29.85 in 6.0 mi SE 9.2 mph - N/A   Overcast
3:33 AM 46.0 °F 41.9 °F 42.1 °F 86% 29.82 in 2.0 mi South 8.1 mph - 0.03 in Rain Rain
3:40 AM 46.0 °F 42.5 °F 42.1 °F 86% 29.81 in 1.5 mi Variable 6.9 mph - 0.07 in Rain Rain
3:45 AM 46.0 °F 42.5 °F 42.1 °F 86% 29.81 in 2.0 mi SSE 6.9 mph - 0.08 in Rain Rain
3:53 AM 46.0 °F 41.4 °F 42.1 °F 86% 29.81 in 3.0 mi SSE 9.2 mph 17.3 mph 0.10 in Rain Light Rain
4:06 AM 46.0 °F 42.5 °F 42.1 °F 86% 29.80 in 2.0 mi Variable 6.9 mph 17.3 mph 0.03 in Rain Light Rain
4:13 AM 46.0 °F 41.9 °F 43.0 °F 89% 29.80 in 2.5 mi South 8.1 mph 19.6 mph 0.05 in Rain Rain
4:16 AM 46.0 °F 41.0 °F 43.0 °F 89% 29.80 in 3.0 mi South 10.4 mph 19.6 mph 0.05 in Rain Light Rain
4:21 AM 46.0 °F 42.5 °F 43.0 °F 89% 29.80 in 4.0 mi Variable 6.9 mph 19.6 mph 0.06 in Rain Light Rain
4:25 AM 46.0 °F 41.4 °F 43.0 °F 89% 29.80 in 2.5 mi South 9.2 mph 23.0 mph 0.06 in Rain Light Rain
4:37 AM 46.0 °F 39.6 °F 42.1 °F 86% 29.79 in 6.0 mi SSE 15.0 mph 23.0 mph 0.08 in Rain Light Rain
4:53 AM 46.0 °F 41.0 °F 42.1 °F 86% 29.78 in 4.0 mi SSE 10.4 mph 19.6 mph 0.08 in Rain Light Rain
5:01 AM 46.0 °F 41.0 °F 42.1 °F 86% 29.77 in 4.0 mi South 10.4 mph 19.6 mph 0.01 in Rain Light Rain
5:33 AM 46.0 °F 40.2 °F 41.0 °F 83% 29.75 in 2.5 mi South 12.7 mph 26.5 mph 0.04 in Rain Rain
5:53 AM 45.0 °F 40.1 °F 39.9 °F 82% 29.74 in 2.5 mi SSE 9.2 mph 27.6 mph 0.10 in Rain Light Rain
5:58 AM 45.0 °F 38.9 °F 41.0 °F 86% 29.73 in 3.0 mi SSE 12.7 mph 20.7 mph 0.01 in Rain Rain
6:05 AM 45.0 °F 38.9 °F 41.0 °F 86% 29.72 in 2.5 mi SE 12.7 mph 20.7 mph 0.02 in Rain Rain
6:25 AM 45.0 °F 42.6 °F 41.0 °F 86% 29.71 in 2.5 mi Variable 4.6 mph 18.4 mph 0.09 in Rain Rain
6:46 AM 45.0 °F 40.6 °F 41.0 °F 86% 29.70 in 1.8 mi SSE 8.1 mph - 0.17 in Rain Heavy Rain
6:53 AM 46.0 °F 41.4 °F 42.1 °F 86% 29.70 in 2.0 mi South 9.2 mph 17.3 mph 0.21 in Rain Rain
7:13 AM 48.0 °F - 45.0 °F 89% 29.67 in 2.5 mi South 13.8 mph 23.0 mph 0.06 in Rain Light Rain
7:21 AM 48.9 °F - 45.0 °F 86% 29.67 in 3.0 mi SSW 16.1 mph 23.0 mph 0.06 in Rain Light Rain
7:39 AM 48.9 °F - 46.0 °F 90% 29.65 in 1.8 mi SSW 12.7 mph 24.2 mph 0.08 in Rain Light Rain
7:53 AM 48.9 °F - 46.0 °F 90% 29.64 in 2.0 mi South 17.3 mph 32.2 mph 0.09 in Rain Light Rain
8:12 AM 50.0 °F - 46.0 °F 86% 29.62 in 2.5 mi South 16.1 mph 36.8 mph 0.02 in Rain Light Rain
8:29 AM 50.0 °F - 46.9 °F 89% 29.61 in 2.5 mi South 11.5 mph 28.8 mph 0.03 in Rain Light Rain
8:51 AM 50.0 °F - 46.4 °F 87% 29.60 in 3.0 mi South 16.1 mph 33.4 mph 0.03 in Rain Light Rain
8:53 AM 50.0 °F - 46.9 °F 89% 29.61 in 3.0 mi South 16.1 mph 33.4 mph 0.03 in Rain Light Rain
9:14 AM 50.0 °F - 46.0 °F 86% 29.60 in 2.0 mi South 11.5 mph 27.6 mph 0.01 in Rain Light Rain
9:27 AM 50.0 °F - 46.0 °F 86% 29.58 in 3.0 mi South 19.6 mph 29.9 mph 0.01 in Rain Light Rain
9:53 AM 50.0 °F - 46.0 °F 86% 29.57 in 3.0 mi South 11.5 mph 33.4 mph 0.01 in   Overcast
10:23 AM 48.9 °F - 46.0 °F 90% 29.54 in 2.0 mi South 13.8 mph 23.0 mph 0.00 in Rain Light Rain
10:26 AM 50.0 °F - 46.0 °F 86% 29.53 in 1.2 mi South 15.0 mph 23.0 mph 0.00 in Rain Light Rain
10:36 AM 50.0 °F - 46.0 °F 86% 29.52 in 0.8 mi South 10.4 mph 24.2 mph 0.06 in Rain Rain
10:48 AM 50.0 °F - 46.4 °F 87% 29.52 in 1.0 mi SSW 17.3 mph 28.8 mph 0.08 in Rain Light Rain
10:51 AM 50.0 °F - 46.4 °F 87% 29.51 in 1.5 mi SSW 18.4 mph 28.8 mph 0.08 in Rain Light Rain
10:53 AM 50.0 °F - 46.9 °F 89% 29.52 in 1.8 mi SSW 15.0 mph 28.8 mph 0.08 in Rain Light Rain
11:00 AM 50.0 °F - 46.9 °F 89% 29.53 in 2.0 mi SW 21.9 mph 29.9 mph 0.00 in Rain Light Rain
11:20 AM 50.0 °F - 46.9 °F 89% 29.54 in 3.0 mi SW 19.6 mph 27.6 mph 0.00 in   Overcast
11:53 AM 50.0 °F - 45.0 °F 83% 29.55 in 4.0 mi SW 18.4 mph 29.9 mph 0.00 in Rain Light Rain
12:20 PM 46.9 °F - 42.1 °F 83% 29.56 in 4.0 mi WSW 21.9 mph 31.1 mph 0.00 in Rain Light Rain
12:53 PM 48.9 °F - 41.0 °F 74% 29.56 in 6.0 mi WSW 19.6 mph 31.1 mph 0.00 in Rain Light Rain
1:26 PM 48.9 °F - 39.9 °F 71% 29.57 in 6.0 mi WSW 23.0 mph 38.0 mph 0.00 in Rain Light Rain
1:53 PM 50.0 °F - 41.0 °F 71% 29.59 in 6.0 mi West 17.3 mph 33.4 mph 0.00 in Rain Light Rain
2:53 PM 46.9 °F - 37.9 °F 71% 29.62 in 6.0 mi West 15.0 mph 34.5 mph 0.00 in   Haze
3:01 PM 46.0 °F 38.3 °F 37.9 °F 73% 29.62 in 5.0 mi West 20.7 mph 29.9 mph 0.00 in Rain Light Rain
3:08 PM 46.9 °F - 39.0 °F 74% 29.63 in 6.0 mi WSW 15.0 mph 28.8 mph 0.00 in   Haze
3:48 PM 46.4 °F 38.7 °F 39.2 °F 76% 29.65 in 2.5 mi West 20.7 mph 34.5 mph 0.01 in Rain Light Rain
3:53 PM 46.9 °F - 39.0 °F 74% 29.66 in 4.0 mi West 24.2 mph 34.5 mph 0.01 in Rain Light Rain
4:53 PM 46.9 °F - 37.0 °F 68% 29.70 in 6.0 mi WSW 21.9 mph 32.2 mph 0.00 in Rain Light Rain
5:53 PM 44.1 °F 37.4 °F 36.0 °F 73% 29.73 in 4.0 mi West 13.8 mph 26.5 mph 0.02 in Rain Light Rain
6:53 PM 44.1 °F 38.1 °F 35.1 °F 71% 29.76 in 7.0 mi West 11.5 mph 18.4 mph 0.00 in   Overcast
7:53 PM 42.1 °F 35.7 °F 35.1 °F 76% 29.78 in 7.0 mi West 11.5 mph 21.9 mph 0.02 in Rain Light Rain
8:53 PM 44.1 °F 38.6 °F 36.0 °F 73% 29.80 in 6.0 mi West 10.4 mph - 0.00 in   Haze
9:53 PM 44.1 °F 38.6 °F 35.1 °F 71% 29.82 in 7.0 mi WSW 10.4 mph - N/A   Overcast
11:53 PM 43.0 °F 37.7 °F 35.1 °F 74% 29.84 in 4.0 mi West 9.2 mph 25.3 mph 0.01 in Rain Light Rain